Flag for Germany Weather past 2 weeks in Ettlingen, Baden-Württemberg, Germany

Now
48 °F

Partly sunny.


Feels Like: 44 °F
Forecast: 36 / 53 °F
Wind: 9 mph from Southwest

Location: Karlsruhe - Baden Wurttemberg

Current Time: Oct 22, 2014 at 4:09:39 PM

Latest Report: Oct 22, 2014 at 3:20 PM


Visibility: N/A

Pressure: 30.15 "Hg

Humidity: 66%

Dew point: 37 °F

Location of EttlingenLocation

Historic Weather in Ettlingen — Graph

°F

Ettlingen temperature yesterday

Maximum temperature yesterday: 64 °F (at 12:50 PM)
Minimum temperature yesterday: 48 °F (at 11:20 PM)
Average temperature yesterday: 57 °F

Past Weeks' High & Low Weather Summary

 TemperatureHumidityPressure
High75 °F (Oct 19, 2:50 PM)100% (Oct 12, 5:50 AM)30.18 "Hg (Oct 12, 5:50 AM)
Low45 °F (Oct 18, 6:50 AM)50% (Oct 19, 3:50 PM)29.65 "Hg (Oct 21, 5:20 PM)
Average59 °F82%29.92 "Hg
* Reported Oct 7 2:20 PM — Oct 22 2:50 PM, Ettlingen, Weather by CustomWeather, © 2014

Note: Actual official high and low records may vary slightly from our data, if they occured in-between our weather recording intervals... More about our weather records

Advertising

Ettlingen weather history for previous 24 hours

 ConditionsComfort  
Time TempWeatherWind HumidityBarometerVisibility
2:50 PM
Oct 22
48 °FLight rain. Partly sunny.12 mph66%30.15 "HgN/A
2:20 PM48 °FBroken clouds.9 mph66%30.15 "HgN/A
1:50 PM48 °FScattered clouds.9 mph66%30.15 "HgN/A
1:20 PM46 °FPartly sunny.10 mph71%30.15 "HgN/A
12:50 PM46 °FPartly sunny.10 mph71%30.15 "HgN/A
12:20 PM46 °FPartly sunny.9 mph66%30.15 "HgN/A
11:50 AM46 °FPartly sunny.13 mph66%30.15 "HgN/A
11:20 AM46 °FPartly sunny.14 mph66%30.12 "HgN/A
10:50 AM46 °FPartly sunny.15 mph66%30.12 "HgN/A
10:20 AM46 °FBroken clouds.10 mph66%30.12 "HgN/A
9:50 AM46 °FScattered showers. Partly sunny.12 mph66%30.12 "HgN/A
9:20 AM46 °FScattered showers. Partly sunny.12 mph66%30.12 "HgN/A
8:50 AM46 °FScattered showers. Passing clouds.10 mph66%30.09 "HgN/A
8:20 AM46 °FPassing clouds.12 mph66%30.09 "HgN/A
7:50 AM46 °FPartly cloudy.12 mph71%30.07 "HgN/A
7:20 AM45 °FPartly cloudy.9 mph76%30.07 "HgN/A
6:50 AM45 °FPassing clouds.9 mph71%30.07 "HgN/A
6:20 AM45 °FPassing clouds.9 mph71%30.04 "HgN/A
5:50 AM45 °FPassing clouds.12 mph71%30.04 "HgN/A
5:20 AM46 °FPassing clouds.9 mph66%30.04 "HgN/A
4:50 AM46 °FPassing clouds.12 mph66%30.04 "HgN/A
3:20 AM48 °FPassing clouds.9 mph66%30.04 "HgN/A
12:20 AM48 °FPassing clouds.8 mph71%29.98 "HgN/A
11:50 PM
Oct 21
48 °FScattered showers. Partly cloudy.13 mph71%29.98 "HgN/A
11:20 PM48 °FPassing clouds.9 mph66%29.98 "HgN/A
10:50 PM50 °FScattered showers. Passing clouds.12 mph62%29.95 "HgN/A
10:20 PM50 °FScattered showers. Partly cloudy.7 mph71%29.92 "HgN/A
9:50 PM50 °FScattered showers. Partly cloudy.8 mph71%29.89 "HgN/A
9:20 PM52 °FScattered showers. Passing clouds.9 mph67%29.86 "HgN/A
8:50 PM52 °FPassing clouds.10 mph72%29.83 "HgN/A
8:20 PM52 °FScattered showers. Passing clouds.14 mph77%29.83 "HgN/A
7:50 PM52 °FSprinkles. Passing clouds.10 mph77%29.80 "Hg5 mi
7:20 PM52 °FSprinkles. Broken clouds.10 mph77%29.77 "Hg5 mi
6:56 PM52 °FThundershowers. Broken clouds.15 mph77%29.74 "Hg5 mi
6:50 PM52 °FThundershowers. Broken clouds.20 mph77%29.74 "Hg3 mi
6:20 PM61 °FSprinkles. Partly sunny.17 mph68%29.65 "HgN/A
5:50 PM59 °FSprinkles. Broken clouds.14 mph72%29.65 "HgN/A
5:20 PM59 °FRain showers. Broken clouds.13 mph77%29.65 "HgN/A
4:50 PM61 °FSprinkles. Broken clouds.16 mph63%29.68 "HgN/A
4:20 PM61 °FSprinkles. Broken clouds.14 mph63%29.74 "HgN/A
Weather by CustomWeather, © 2014

See weather overviewHow to use our weather pages